owner,sensor,date,latitude,longitude,vertical_datum,sea_water_practical_salinity,qcFlag 
SCCF RECON,ioos:station:SCCF:11:1,2017-05-01T00:00:00Z,26.4679,-82.0631,2.108,35.51,1111122 
SCCF RECON,ioos:station:SCCF:11:1,2017-05-01T01:00:00Z,26.4679,-82.0631,1.983,35.56,1111122 
SCCF RECON,ioos:station:SCCF:11:1,2017-05-01T02:00:00Z,26.4679,-82.0631,1.83,35.6,1111122 
SCCF RECON,ioos:station:SCCF:11:1,2017-05-01T03:00:00Z,26.4679,-82.0631,1.685,35.62,1111122 
SCCF RECON,ioos:station:SCCF:11:1,2017-05-01T04:00:00Z,26.4679,-82.0631,1.56,35.66,1111122 
SCCF RECON,ioos:station:SCCF:11:1,2017-05-01T05:00:00Z,26.4679,-82.0631,1.483,35.65,1111122 
SCCF RECON,ioos:station:SCCF:11:1,2017-05-01T06:00:00Z,26.4679,-82.0631,1.48,35.59,1111122 
SCCF RECON,ioos:station:SCCF:11:1,2017-05-01T07:00:00Z,26.4679,-82.0631,1.595,35.59,1111122 
SCCF RECON,ioos:station:SCCF:11:1,2017-05-01T08:00:00Z,26.4679,-82.0631,1.7,35.6,1111122 
SCCF RECON,ioos:station:SCCF:11:1,2017-05-01T09:00:00Z,26.4679,-82.0631,1.81,35.6,1111122 
SCCF RECON,ioos:station:SCCF:11:1,2017-05-01T10:00:00Z,26.4679,-82.0631,1.91,35.61,1111122 
SCCF RECON,ioos:station:SCCF:11:1,2017-05-01T11:00:00Z,26.4679,-82.0631,1.979,35.64,1111122 
SCCF RECON,ioos:station:SCCF:11:1,2017-05-01T12:00:00Z,26.4679,-82.0631,2.01,35.66,1111122 
SCCF RECON,ioos:station:SCCF:11:1,2017-05-01T13:00:00Z,26.4679,-82.0631,2.04,35.68,1111122 
SCCF RECON,ioos:station:SCCF:11:1,2017-05-01T14:00:00Z,26.4679,-82.0631,2.04,35.66,1111122 
SCCF RECON,ioos:station:SCCF:11:1,2017-05-01T15:00:00Z,26.4679,-82.0631,2.01,35.67,1111122 
SCCF RECON,ioos:station:SCCF:11:1,2017-05-01T16:00:00Z,26.4679,-82.0631,1.985,35.7,1111122 
SCCF RECON,ioos:station:SCCF:11:1,2017-05-01T17:00:00Z,26.4679,-82.0631,1.99,35.7,1111122 
SCCF RECON,ioos:station:SCCF:11:1,2017-05-01T18:00:00Z,26.4679,-82.0631,1.991,35.77,1111122 
SCCF RECON,ioos:station:SCCF:11:1,2017-05-01T19:00:00Z,26.4679,-82.0631,2.06,35.8,1111122 
SCCF RECON,ioos:station:SCCF:11:1,2017-05-01T20:00:00Z,26.4679,-82.0631,2.12,35.79,1111122 
SCCF RECON,ioos:station:SCCF:11:1,2017-05-01T21:00:00Z,26.4679,-82.0631,2.166,35.8,1111122 
SCCF RECON,ioos:station:SCCF:11:1,2017-05-01T22:00:00Z,26.4679,-82.0631,2.17,35.81,1111122 
SCCF RECON,ioos:station:SCCF:11:1,2017-05-01T23:00:00Z,26.4679,-82.0631,2.16,35.73,1111122 
SCCF RECON,ioos:station:SCCF:11:1,2017-05-02T00:00:00Z,26.4679,-82.0631,2.1,35.71,1111122 
SCCF RECON,ioos:station:SCCF:11:1,2017-05-02T01:00:00Z,26.4679,-82.0631,1.98,35.76,1111122 
SCCF RECON,ioos:station:SCCF:11:1,2017-05-02T02:00:00Z,26.4679,-82.0631,1.86,35.73,1111122 
SCCF RECON,ioos:station:SCCF:11:1,2017-05-02T03:00:00Z,26.4679,-82.0631,1.742,35.73,1111122 
SCCF RECON,ioos:station:SCCF:11:1,2017-05-02T04:00:00Z,26.4679,-82.0631,1.65,35.72,1111122 
SCCF RECON,ioos:station:SCCF:11:1,2017-05-02T05:00:00Z,26.4679,-82.0631,1.58,35.74,1111122 
SCCF RECON,ioos:station:SCCF:11:1,2017-05-02T06:00:00Z,26.4679,-82.0631,1.53,35.72,1111122 
SCCF RECON,ioos:station:SCCF:11:1,2017-05-02T07:00:00Z,26.4679,-82.0631,1.55,35.59,1111122 
SCCF RECON,ioos:station:SCCF:11:1,2017-05-02T08:00:00Z,26.4679,-82.0631,1.63,35.68,1111122 
SCCF RECON,ioos:station:SCCF:11:1,2017-05-02T09:00:00Z,26.4679,-82.0631,1.73,35.63,1111122 
SCCF RECON,ioos:station:SCCF:11:1,2017-05-02T10:00:00Z,26.4679,-82.0631,1.84,35.56,1111122 
SCCF RECON,ioos:station:SCCF:11:1,2017-05-02T11:00:00Z,26.4679,-82.0631,1.95,34.8,1111122 
SCCF RECON,ioos:station:SCCF:11:1,2017-05-02T12:00:00Z,26.4679,-82.0631,2.0,35.21,1111122 
SCCF RECON,ioos:station:SCCF:11:1,2017-05-02T13:00:00Z,26.4679,-82.0631,2.03,34.93,1111122 
SCCF RECON,ioos:station:SCCF:11:1,2017-05-02T14:00:00Z,26.4679,-82.0631,2.022,35.1,1111122 
SCCF RECON,ioos:station:SCCF:11:1,2017-05-02T15:00:00Z,26.4679,-82.0631,2.0,34.9,1111122 
SCCF RECON,ioos:station:SCCF:11:1,2017-05-02T16:00:00Z,26.4679,-82.0631,1.98,35.14,1111122 
SCCF RECON,ioos:station:SCCF:11:1,2017-05-02T17:00:00Z,26.4679,-82.0631,1.977,34.85,1111122 
SCCF RECON,ioos:station:SCCF:11:1,2017-05-02T18:00:00Z,26.4679,-82.0631,1.96,34.48,1111122 
SCCF RECON,ioos:station:SCCF:11:1,2017-05-02T19:00:00Z,26.4679,-82.0631,1.99,34.9,1111122 
SCCF RECON,ioos:station:SCCF:11:1,2017-05-02T20:00:00Z,26.4679,-82.0631,2.03,34.82,1111122 
SCCF RECON,ioos:station:SCCF:11:1,2017-05-02T21:00:00Z,26.4679,-82.0631,2.06,34.98,1111122 
SCCF RECON,ioos:station:SCCF:11:1,2017-05-02T22:00:00Z,26.4679,-82.0631,2.071,35.0,1111122 
SCCF RECON,ioos:station:SCCF:11:1,2017-05-02T23:00:00Z,26.4679,-82.0631,2.08,35.03,1111122 
SCCF RECON,ioos:station:SCCF:11:1,2017-05-03T00:00:00Z,26.4679,-82.0631,2.1,34.96,1111122 
SCCF RECON,ioos:station:SCCF:11:1,2017-05-03T01:00:00Z,26.4679,-82.0631,2.07,34.55,1111122 
SCCF RECON,ioos:station:SCCF:11:1,2017-05-03T02:00:00Z,26.4679,-82.0631,2.01,34.39,1111122 
SCCF RECON,ioos:station:SCCF:11:1,2017-05-03T03:00:00Z,26.4679,-82.0631,1.91,34.16,1111122 
SCCF RECON,ioos:station:SCCF:11:1,2017-05-03T04:00:00Z,26.4679,-82.0631,1.79,33.83,1111122 
SCCF RECON,ioos:station:SCCF:11:1,2017-05-03T05:00:00Z,26.4679,-82.0631,1.67,33.82,1111122 
SCCF RECON,ioos:station:SCCF:11:1,2017-05-03T06:00:00Z,26.4679,-82.0631,1.567,33.86,1111122 
SCCF RECON,ioos:station:SCCF:11:1,2017-05-03T07:00:00Z,26.4679,-82.0631,1.52,34.67,1111122 
SCCF RECON,ioos:station:SCCF:11:1,2017-05-03T08:00:00Z,26.4679,-82.0631,1.53,34.68,1111122 
SCCF RECON,ioos:station:SCCF:11:1,2017-05-03T09:00:00Z,26.4679,-82.0631,1.6,35.07,1111122 
SCCF RECON,ioos:station:SCCF:11:1,2017-05-03T10:00:00Z,26.4679,-82.0631,1.7,35.05,1111122 
SCCF RECON,ioos:station:SCCF:11:1,2017-05-03T11:00:00Z,26.4679,-82.0631,1.79,34.97,1111122 
SCCF RECON,ioos:station:SCCF:11:1,2017-05-03T12:00:00Z,26.4679,-82.0631,1.878,34.95,1111122 
SCCF RECON,ioos:station:SCCF:11:1,2017-05-03T13:00:00Z,26.4679,-82.0631,1.951,34.94,1111122 
SCCF RECON,ioos:station:SCCF:11:1,2017-05-03T14:00:00Z,26.4679,-82.0631,2.0,34.96,1111122 
SCCF RECON,ioos:station:SCCF:11:1,2017-05-03T15:00:00Z,26.4679,-82.0631,2.01,34.96,1111122 
SCCF RECON,ioos:station:SCCF:11:1,2017-05-03T16:00:00Z,26.4679,-82.0631,1.98,34.88,1111122 
SCCF RECON,ioos:station:SCCF:11:1,2017-05-03T17:00:00Z,26.4679,-82.0631,1.944,34.76,1111122 
SCCF RECON,ioos:station:SCCF:11:1,2017-05-03T18:00:00Z,26.4679,-82.0631,1.89,34.55,1111122 
SCCF RECON,ioos:station:SCCF:11:1,2017-05-03T19:00:00Z,26.4679,-82.0631,1.85,34.52,1111122 
SCCF RECON,ioos:station:SCCF:11:1,2017-05-03T20:00:00Z,26.4679,-82.0631,1.81,34.71,1111122 
SCCF RECON,ioos:station:SCCF:11:1,2017-05-03T21:00:00Z,26.4679,-82.0631,1.85,34.89,1111122 
SCCF RECON,ioos:station:SCCF:11:1,2017-05-03T22:00:00Z,26.4679,-82.0631,1.9,34.99,1111122 
SCCF RECON,ioos:station:SCCF:11:1,2017-05-03T23:00:00Z,26.4679,-82.0631,1.94,35.05,1111122 
SCCF RECON,ioos:station:SCCF:11:1,2017-05-04T00:00:00Z,26.4679,-82.0631,2.0,35.06,1111122 
SCCF RECON,ioos:station:SCCF:11:1,2017-05-04T01:00:00Z,26.4679,-82.0631,2.03,35.07,1111122 
SCCF RECON,ioos:station:SCCF:11:1,2017-05-04T02:00:00Z,26.4679,-82.0631,2.039,35.07,1111122 
SCCF RECON,ioos:station:SCCF:11:1,2017-05-04T03:00:00Z,26.4679,-82.0631,2.03,35.07,1111122 
SCCF RECON,ioos:station:SCCF:11:1,2017-05-04T04:00:00Z,26.4679,-82.0631,1.984,34.88,1111122 
SCCF RECON,ioos:station:SCCF:11:1,2017-05-04T05:00:00Z,26.4679,-82.0631,1.871,34.92,1111122 
SCCF RECON,ioos:station:SCCF:11:1,2017-05-04T06:00:00Z,26.4679,-82.0631,1.75,34.97,1111122 
SCCF RECON,ioos:station:SCCF:11:1,2017-05-04T07:00:00Z,26.4679,-82.0631,1.65,34.95,1111122 
SCCF RECON,ioos:station:SCCF:11:1,2017-05-04T08:00:00Z,26.4679,-82.0631,1.59,34.82,1111122 
SCCF RECON,ioos:station:SCCF:11:1,2017-05-04T09:00:00Z,26.4679,-82.0631,1.58,34.92,1111122 
SCCF RECON,ioos:station:SCCF:11:1,2017-05-04T10:00:00Z,26.4679,-82.0631,1.64,34.94,1111122 
SCCF RECON,ioos:station:SCCF:11:1,2017-05-04T11:00:00Z,26.4679,-82.0631,1.729,34.97,1111122 
SCCF RECON,ioos:station:SCCF:11:1,2017-05-04T12:00:00Z,26.4679,-82.0631,1.83,35.04,1111122 
SCCF RECON,ioos:station:SCCF:11:1,2017-05-04T13:00:00Z,26.4679,-82.0631,1.94,35.11,1111122 
SCCF RECON,ioos:station:SCCF:11:1,2017-05-04T14:00:00Z,26.4679,-82.0631,2.02,35.16,1111122 
SCCF RECON,ioos:station:SCCF:11:1,2017-05-04T15:00:00Z,26.4679,-82.0631,2.08,35.28,1111122 
SCCF RECON,ioos:station:SCCF:11:1,2017-05-04T16:00:00Z,26.4679,-82.0631,2.14,35.26,1111122 
SCCF RECON,ioos:station:SCCF:11:1,2017-05-04T17:00:00Z,26.4679,-82.0631,2.119,35.18,1111122 
SCCF RECON,ioos:station:SCCF:11:1,2017-05-04T18:00:00Z,26.4679,-82.0631,2.029,35.05,1111122 
SCCF RECON,ioos:station:SCCF:11:1,2017-05-04T19:00:00Z,26.4679,-82.0631,1.94,35.0,1111122 
SCCF RECON,ioos:station:SCCF:11:1,2017-05-04T20:00:00Z,26.4679,-82.0631,1.88,35.07,1111122 
SCCF RECON,ioos:station:SCCF:11:1,2017-05-04T21:00:00Z,26.4679,-82.0631,1.848,35.02,1111122 
SCCF RECON,ioos:station:SCCF:11:1,2017-05-04T22:00:00Z,26.4679,-82.0631,1.849,35.1,1111122 
SCCF RECON,ioos:station:SCCF:11:1,2017-05-04T23:00:00Z,26.4679,-82.0631,1.85,35.64,1111122 
SCCF RECON,ioos:station:SCCF:11:1,2017-05-05T00:00:00Z,26.4679,-82.0631,1.92,35.47,1111122 
SCCF RECON,ioos:station:SCCF:11:1,2017-05-05T01:00:00Z,26.4679,-82.0631,1.98,35.58,1111122 
SCCF RECON,ioos:station:SCCF:11:1,2017-05-05T02:00:00Z,26.4679,-82.0631,1.991,35.38,1111122 
SCCF RECON,ioos:station:SCCF:11:1,2017-05-05T03:00:00Z,26.4679,-82.0631,1.97,35.47,1111122 
SCCF RECON,ioos:station:SCCF:11:1,2017-05-05T04:00:00Z,26.4679,-82.0631,1.938,35.35,1111122 
SCCF RECON,ioos:station:SCCF:11:1,2017-05-05T05:00:00Z,26.4679,-82.0631,1.887,35.32,1111122 
SCCF RECON,ioos:station:SCCF:11:1,2017-05-05T06:00:00Z,26.4679,-82.0631,1.84,35.52,1111122 
SCCF RECON,ioos:station:SCCF:11:1,2017-05-05T07:00:00Z,26.4679,-82.0631,1.8,35.49,1111122 
SCCF RECON,ioos:station:SCCF:11:1,2017-05-05T08:00:00Z,26.4679,-82.0631,1.73,34.99,1111122 
SCCF RECON,ioos:station:SCCF:11:1,2017-05-05T09:00:00Z,26.4679,-82.0631,1.66,34.82,1111122 
SCCF RECON,ioos:station:SCCF:11:1,2017-05-05T10:00:00Z,26.4679,-82.0631,1.661,35.17,1111122 
SCCF RECON,ioos:station:SCCF:11:1,2017-05-05T11:00:00Z,26.4679,-82.0631,1.74,35.23,1111122 
SCCF RECON,ioos:station:SCCF:11:1,2017-05-05T12:00:00Z,26.4679,-82.0631,1.82,35.3,1111122 
SCCF RECON,ioos:station:SCCF:11:1,2017-05-05T13:00:00Z,26.4679,-82.0631,1.93,35.28,1111122 
SCCF RECON,ioos:station:SCCF:11:1,2017-05-05T14:00:00Z,26.4679,-82.0631,2.039,35.39,1111122 
SCCF RECON,ioos:station:SCCF:11:1,2017-05-05T15:00:00Z,26.4679,-82.0631,2.09,35.18,1111122 
SCCF RECON,ioos:station:SCCF:11:1,2017-05-05T16:00:00Z,26.4679,-82.0631,2.11,35.1,1111122 
SCCF RECON,ioos:station:SCCF:11:1,2017-05-05T17:00:00Z,26.4679,-82.0631,2.05,35.13,1111122 
SCCF RECON,ioos:station:SCCF:11:1,2017-05-05T18:00:00Z,26.4679,-82.0631,1.951,34.97,1111122 
SCCF RECON,ioos:station:SCCF:11:1,2017-05-05T19:00:00Z,26.4679,-82.0631,1.86,34.98,1111122 
SCCF RECON,ioos:station:SCCF:11:1,2017-05-05T20:00:00Z,26.4679,-82.0631,1.77,35.01,1111122 
SCCF RECON,ioos:station:SCCF:11:1,2017-05-05T21:00:00Z,26.4679,-82.0631,1.69,35.0,1111122 
SCCF RECON,ioos:station:SCCF:11:1,2017-05-05T22:00:00Z,26.4679,-82.0631,1.63,34.97,1111122 
SCCF RECON,ioos:station:SCCF:11:1,2017-05-05T23:00:00Z,26.4679,-82.0631,1.64,34.97,1111122 
SCCF RECON,ioos:station:SCCF:11:1,2017-05-06T00:00:00Z,26.4679,-82.0631,1.69,35.03,1111122 
SCCF RECON,ioos:station:SCCF:11:1,2017-05-06T01:00:00Z,26.4679,-82.0631,1.763,35.03,1111122 
SCCF RECON,ioos:station:SCCF:11:1,2017-05-06T02:00:00Z,26.4679,-82.0631,1.84,35.08,1111122 
SCCF RECON,ioos:station:SCCF:11:1,2017-05-06T03:00:00Z,26.4679,-82.0631,1.93,35.03,1111122 
SCCF RECON,ioos:station:SCCF:11:1,2017-05-06T04:00:00Z,26.4679,-82.0631,2.0,35.04,1111122 
SCCF RECON,ioos:station:SCCF:11:1,2017-05-06T05:00:00Z,26.4679,-82.0631,2.02,35.05,1111122 
SCCF RECON,ioos:station:SCCF:11:1,2017-05-06T06:00:00Z,26.4679,-82.0631,1.966,35.06,1111122 
SCCF RECON,ioos:station:SCCF:11:1,2017-05-06T07:00:00Z,26.4679,-82.0631,1.858,35.04,1111122 
SCCF RECON,ioos:station:SCCF:11:1,2017-05-06T08:00:00Z,26.4679,-82.0631,1.77,35.05,1111122 
SCCF RECON,ioos:station:SCCF:11:1,2017-05-06T09:00:00Z,26.4679,-82.0631,1.69,35.07,1111122 
SCCF RECON,ioos:station:SCCF:11:1,2017-05-06T10:00:00Z,26.4679,-82.0631,1.6,35.04,1111122 
SCCF RECON,ioos:station:SCCF:11:1,2017-05-06T11:00:00Z,26.4679,-82.0631,1.547,35.04,1111122 
SCCF RECON,ioos:station:SCCF:11:1,2017-05-06T12:00:00Z,26.4679,-82.0631,1.56,35.1,1111122 
SCCF RECON,ioos:station:SCCF:11:1,2017-05-06T13:00:00Z,26.4679,-82.0631,1.65,35.1,1111122 
SCCF RECON,ioos:station:SCCF:11:1,2017-05-06T14:00:00Z,26.4679,-82.0631,1.781,35.12,1111122 
SCCF RECON,ioos:station:SCCF:11:1,2017-05-06T15:00:00Z,26.4679,-82.0631,1.91,35.13,1111122 
SCCF RECON,ioos:station:SCCF:11:1,2017-05-06T16:00:00Z,26.4679,-82.0631,1.98,35.16,1111122 
SCCF RECON,ioos:station:SCCF:11:1,2017-05-06T17:00:00Z,26.4679,-82.0631,1.958,35.15,1111122 
SCCF RECON,ioos:station:SCCF:11:1,2017-05-06T18:00:00Z,26.4679,-82.0631,1.88,35.12,1111122 
SCCF RECON,ioos:station:SCCF:11:1,2017-05-06T19:00:00Z,26.4679,-82.0631,1.798,35.12,1111122 
SCCF RECON,ioos:station:SCCF:11:1,2017-05-06T20:00:00Z,26.4679,-82.0631,1.71,35.12,1111122 
SCCF RECON,ioos:station:SCCF:11:1,2017-05-06T21:00:00Z,26.4679,-82.0631,1.639,35.15,1111122 
SCCF RECON,ioos:station:SCCF:11:1,2017-05-06T22:00:00Z,26.4679,-82.0631,1.58,35.15,1111122 
SCCF RECON,ioos:station:SCCF:11:1,2017-05-06T23:00:00Z,26.4679,-82.0631,1.566,35.17,1111122 
SCCF RECON,ioos:station:SCCF:11:1,2017-05-07T00:00:00Z,26.4679,-82.0631,1.58,35.3,1111122 
SCCF RECON,ioos:station:SCCF:11:1,2017-05-07T01:00:00Z,26.4679,-82.0631,1.66,35.25,1111122 
SCCF RECON,ioos:station:SCCF:11:1,2017-05-07T02:00:00Z,26.4679,-82.0631,1.758,35.2,1111122 
SCCF RECON,ioos:station:SCCF:11:1,2017-05-07T03:00:00Z,26.4679,-82.0631,1.85,35.18,1111122 
SCCF RECON,ioos:station:SCCF:11:1,2017-05-07T04:00:00Z,26.4679,-82.0631,1.92,35.21,1111122 
SCCF RECON,ioos:station:SCCF:11:1,2017-05-07T05:00:00Z,26.4679,-82.0631,1.95,35.25,1111122 
SCCF RECON,ioos:station:SCCF:11:1,2017-05-07T06:00:00Z,26.4679,-82.0631,1.94,35.22,1111122 
SCCF RECON,ioos:station:SCCF:11:1,2017-05-07T07:00:00Z,26.4679,-82.0631,1.87,35.22,1111122 
SCCF RECON,ioos:station:SCCF:11:1,2017-05-07T08:00:00Z,26.4679,-82.0631,1.79,35.22,1111122 
SCCF RECON,ioos:station:SCCF:11:1,2017-05-07T09:00:00Z,26.4679,-82.0631,1.71,35.23,1111122 
SCCF RECON,ioos:station:SCCF:11:1,2017-05-07T10:00:00Z,26.4679,-82.0631,1.658,35.22,1111122 
SCCF RECON,ioos:station:SCCF:11:1,2017-05-07T11:00:00Z,26.4679,-82.0631,1.63,35.24,1111122 
SCCF RECON,ioos:station:SCCF:11:1,2017-05-07T12:00:00Z,26.4679,-82.0631,1.66,35.25,1111122 
SCCF RECON,ioos:station:SCCF:11:1,2017-05-07T13:00:00Z,26.4679,-82.0631,1.76,35.25,1111122 
SCCF RECON,ioos:station:SCCF:11:1,2017-05-07T14:00:00Z,26.4679,-82.0631,1.88,35.26,1111122 
SCCF RECON,ioos:station:SCCF:11:1,2017-05-07T15:00:00Z,26.4679,-82.0631,1.98,35.25,1111122 
SCCF RECON,ioos:station:SCCF:11:1,2017-05-07T16:00:00Z,26.4679,-82.0631,2.06,35.25,1111122 
SCCF RECON,ioos:station:SCCF:11:1,2017-05-07T17:00:00Z,26.4679,-82.0631,2.08,35.27,1111122 
SCCF RECON,ioos:station:SCCF:11:1,2017-05-07T18:00:00Z,26.4679,-82.0631,2.02,35.28,1111122 
SCCF RECON,ioos:station:SCCF:11:1,2017-05-07T19:00:00Z,26.4679,-82.0631,1.92,35.27,1111122 
SCCF RECON,ioos:station:SCCF:11:1,2017-05-07T20:00:00Z,26.4679,-82.0631,1.796,35.28,1111122 
SCCF RECON,ioos:station:SCCF:11:1,2017-05-07T21:00:00Z,26.4679,-82.0631,1.68,35.29,1111122 
SCCF RECON,ioos:station:SCCF:11:1,2017-05-07T22:00:00Z,26.4679,-82.0631,1.58,35.31,1111122 
SCCF RECON,ioos:station:SCCF:11:1,2017-05-07T23:00:00Z,26.4679,-82.0631,1.5,35.33,1111122 
SCCF RECON,ioos:station:SCCF:11:1,2017-05-08T00:00:00Z,26.4679,-82.0631,1.475,35.33,1111122 
SCCF RECON,ioos:station:SCCF:11:1,2017-05-08T01:00:00Z,26.4679,-82.0631,1.51,35.33,1111122 
SCCF RECON,ioos:station:SCCF:11:1,2017-05-08T02:00:00Z,26.4679,-82.0631,1.6,35.34,1111122 
SCCF RECON,ioos:station:SCCF:11:1,2017-05-08T03:00:00Z,26.4679,-82.0631,1.71,35.34,1111122 
SCCF RECON,ioos:station:SCCF:11:1,2017-05-08T04:00:00Z,26.4679,-82.0631,1.805,35.34,1111122 
SCCF RECON,ioos:station:SCCF:11:1,2017-05-08T05:00:00Z,26.4679,-82.0631,1.873,35.33,1111122 
SCCF RECON,ioos:station:SCCF:11:1,2017-05-08T06:00:00Z,26.4679,-82.0631,1.905,35.34,1111122 
SCCF RECON,ioos:station:SCCF:11:1,2017-05-08T07:00:00Z,26.4679,-82.0631,1.87,35.35,1111122 
SCCF RECON,ioos:station:SCCF:11:1,2017-05-08T08:00:00Z,26.4679,-82.0631,1.79,35.35,1111122 
SCCF RECON,ioos:station:SCCF:11:1,2017-05-08T09:00:00Z,26.4679,-82.0631,1.717,35.35,1111122 
SCCF RECON,ioos:station:SCCF:11:1,2017-05-08T10:00:00Z,26.4679,-82.0631,1.64,35.36,1111122 
SCCF RECON,ioos:station:SCCF:11:1,2017-05-08T11:00:00Z,26.4679,-82.0631,1.59,35.35,1111122 
SCCF RECON,ioos:station:SCCF:11:1,2017-05-08T12:00:00Z,26.4679,-82.0631,1.59,35.37,1111122 
SCCF RECON,ioos:station:SCCF:11:1,2017-05-08T13:00:00Z,26.4679,-82.0631,1.661,35.36,1111122 
SCCF RECON,ioos:station:SCCF:11:1,2017-05-08T14:00:00Z,26.4679,-82.0631,1.78,35.36,1111122 
SCCF RECON,ioos:station:SCCF:11:1,2017-05-08T15:00:00Z,26.4679,-82.0631,1.9,35.34,1111122 
SCCF RECON,ioos:station:SCCF:11:1,2017-05-08T16:00:00Z,26.4679,-82.0631,2.0,35.27,1111122 
SCCF RECON,ioos:station:SCCF:11:1,2017-05-08T17:00:00Z,26.4679,-82.0631,2.07,35.26,1111122 
SCCF RECON,ioos:station:SCCF:11:1,2017-05-08T18:00:00Z,26.4679,-82.0631,2.07,35.19,1111122 
SCCF RECON,ioos:station:SCCF:11:1,2017-05-08T19:00:00Z,26.4679,-82.0631,2.001,35.35,1111122 
SCCF RECON,ioos:station:SCCF:11:1,2017-05-08T20:00:00Z,26.4679,-82.0631,1.9,35.39,1111122 
SCCF RECON,ioos:station:SCCF:11:1,2017-05-08T21:00:00Z,26.4679,-82.0631,1.77,35.4,1111122 
SCCF RECON,ioos:station:SCCF:11:1,2017-05-08T22:00:00Z,26.4679,-82.0631,1.651,35.42,1111122 
SCCF RECON,ioos:station:SCCF:11:1,2017-05-08T23:00:00Z,26.4679,-82.0631,1.55,35.45,1111122 
SCCF RECON,ioos:station:SCCF:11:1,2017-05-09T00:00:00Z,26.4679,-82.0631,1.49,35.47,1111122 
SCCF RECON,ioos:station:SCCF:11:1,2017-05-09T01:00:00Z,26.4679,-82.0631,1.49,35.47,1111122 
SCCF RECON,ioos:station:SCCF:11:1,2017-05-09T02:00:00Z,26.4679,-82.0631,1.56,35.45,1111122 
SCCF RECON,ioos:station:SCCF:11:1,2017-05-09T03:00:00Z,26.4679,-82.0631,1.67,35.44,1111122 
SCCF RECON,ioos:station:SCCF:11:1,2017-05-09T04:00:00Z,26.4679,-82.0631,1.79,35.45,1111122 
SCCF RECON,ioos:station:SCCF:11:1,2017-05-09T05:00:00Z,26.4679,-82.0631,1.88,35.42,1111122 
SCCF RECON,ioos:station:SCCF:11:1,2017-05-09T06:00:00Z,26.4679,-82.0631,1.942,35.43,1111122 
SCCF RECON,ioos:station:SCCF:11:1,2017-05-09T07:00:00Z,26.4679,-82.0631,1.94,35.44,1111122 
SCCF RECON,ioos:station:SCCF:11:1,2017-05-09T08:00:00Z,26.4679,-82.0631,1.869,35.48,1111122 
SCCF RECON,ioos:station:SCCF:11:1,2017-05-09T09:00:00Z,26.4679,-82.0631,1.78,35.49,1111122 
SCCF RECON,ioos:station:SCCF:11:1,2017-05-09T10:00:00Z,26.4679,-82.0631,1.71,35.49,1111122 
SCCF RECON,ioos:station:SCCF:11:1,2017-05-09T11:00:00Z,26.4679,-82.0631,1.66,35.5,1111122 
SCCF RECON,ioos:station:SCCF:11:1,2017-05-09T12:00:00Z,26.4679,-82.0631,1.63,35.51,1111122 
SCCF RECON,ioos:station:SCCF:11:1,2017-05-09T13:00:00Z,26.4679,-82.0631,1.68,35.49,1111122 
SCCF RECON,ioos:station:SCCF:11:1,2017-05-09T14:00:00Z,26.4679,-82.0631,1.78,35.5,1111122 
SCCF RECON,ioos:station:SCCF:11:1,2017-05-09T15:00:00Z,26.4679,-82.0631,1.9,35.36,1111122 
SCCF RECON,ioos:station:SCCF:11:1,2017-05-09T16:00:00Z,26.4679,-82.0631,2.0,35.39,1111122 
SCCF RECON,ioos:station:SCCF:11:1,2017-05-09T17:00:00Z,26.4679,-82.0631,2.08,35.25,1111122 
SCCF RECON,ioos:station:SCCF:11:1,2017-05-09T18:00:00Z,26.4679,-82.0631,2.11,35.3,1111122 
SCCF RECON,ioos:station:SCCF:11:1,2017-05-09T19:00:00Z,26.4679,-82.0631,2.07,35.44,1111122 
SCCF RECON,ioos:station:SCCF:11:1,2017-05-09T20:00:00Z,26.4679,-82.0631,1.98,35.49,1111122 
SCCF RECON,ioos:station:SCCF:11:1,2017-05-09T21:00:00Z,26.4679,-82.0631,1.85,35.51,1111122 
SCCF RECON,ioos:station:SCCF:11:1,2017-05-09T22:00:00Z,26.4679,-82.0631,1.721,35.53,1111122 
SCCF RECON,ioos:station:SCCF:11:1,2017-05-09T23:00:00Z,26.4679,-82.0631,1.595,35.55,1111122 
SCCF RECON,ioos:station:SCCF:11:1,2017-05-10T00:00:00Z,26.4679,-82.0631,1.48,35.57,1111122 
SCCF RECON,ioos:station:SCCF:11:1,2017-05-10T01:00:00Z,26.4679,-82.0631,1.43,35.57,1111122 
SCCF RECON,ioos:station:SCCF:11:1,2017-05-10T02:00:00Z,26.4679,-82.0631,1.471,35.53,1111122 
SCCF RECON,ioos:station:SCCF:11:1,2017-05-10T03:00:00Z,26.4679,-82.0631,1.58,35.56,1111122 
SCCF RECON,ioos:station:SCCF:11:1,2017-05-10T04:00:00Z,26.4679,-82.0631,1.7,35.52,1111122 
SCCF RECON,ioos:station:SCCF:11:1,2017-05-10T05:00:00Z,26.4679,-82.0631,1.808,35.5,1111122 
SCCF RECON,ioos:station:SCCF:11:1,2017-05-10T06:00:00Z,26.4679,-82.0631,1.891,35.5,1111122 
SCCF RECON,ioos:station:SCCF:11:1,2017-05-10T07:00:00Z,26.4679,-82.0631,1.93,35.49,1111122 
SCCF RECON,ioos:station:SCCF:11:1,2017-05-10T08:00:00Z,26.4679,-82.0631,1.905,35.54,1111122 
SCCF RECON,ioos:station:SCCF:11:1,2017-05-10T09:00:00Z,26.4679,-82.0631,1.83,35.56,1111122 
SCCF RECON,ioos:station:SCCF:11:1,2017-05-10T10:00:00Z,26.4679,-82.0631,1.77,35.58,1111122 
SCCF RECON,ioos:station:SCCF:11:1,2017-05-10T11:00:00Z,26.4679,-82.0631,1.71,35.57,1111122 
SCCF RECON,ioos:station:SCCF:11:1,2017-05-10T12:00:00Z,26.4679,-82.0631,1.66,35.58,1111122 
SCCF RECON,ioos:station:SCCF:11:1,2017-05-10T13:00:00Z,26.4679,-82.0631,1.66,35.57,1111122 
SCCF RECON,ioos:station:SCCF:11:1,2017-05-10T14:00:00Z,26.4679,-82.0631,1.74,35.44,1111122 
SCCF RECON,ioos:station:SCCF:11:1,2017-05-10T15:00:00Z,26.4679,-82.0631,1.88,34.95,1111122 
SCCF RECON,ioos:station:SCCF:11:1,2017-05-10T16:00:00Z,26.4679,-82.0631,2.0,35.07,1111122 
SCCF RECON,ioos:station:SCCF:11:1,2017-05-10T17:00:00Z,26.4679,-82.0631,2.09,35.14,1111122 
SCCF RECON,ioos:station:SCCF:11:1,2017-05-10T18:00:00Z,26.4679,-82.0631,2.14,35.09,1111122 
SCCF RECON,ioos:station:SCCF:11:1,2017-05-10T19:00:00Z,26.4679,-82.0631,2.125,35.17,1111122 
SCCF RECON,ioos:station:SCCF:11:1,2017-05-10T20:00:00Z,26.4679,-82.0631,2.03,35.34,1111122 
SCCF RECON,ioos:station:SCCF:11:1,2017-05-10T21:00:00Z,26.4679,-82.0631,1.901,35.47,1111122 
SCCF RECON,ioos:station:SCCF:11:1,2017-05-10T22:00:00Z,26.4679,-82.0631,1.77,35.52,1111122 
SCCF RECON,ioos:station:SCCF:11:1,2017-05-10T23:00:00Z,26.4679,-82.0631,1.64,35.56,1111122 
SCCF RECON,ioos:station:SCCF:11:1,2017-05-11T00:00:00Z,26.4679,-82.0631,1.52,35.59,1111122 
SCCF RECON,ioos:station:SCCF:11:1,2017-05-11T01:00:00Z,26.4679,-82.0631,1.45,35.63,1111122 
SCCF RECON,ioos:station:SCCF:11:1,2017-05-11T02:00:00Z,26.4679,-82.0631,1.46,35.48,1111122 
SCCF RECON,ioos:station:SCCF:11:1,2017-05-11T03:00:00Z,26.4679,-82.0631,1.56,35.56,1111122 
SCCF RECON,ioos:station:SCCF:11:1,2017-05-11T04:00:00Z,26.4679,-82.0631,1.69,35.53,1111122 
SCCF RECON,ioos:station:SCCF:11:1,2017-05-11T05:00:00Z,26.4679,-82.0631,1.8,35.46,1111122 
SCCF RECON,ioos:station:SCCF:11:1,2017-05-11T06:00:00Z,26.4679,-82.0631,1.906,35.49,1111122 
SCCF RECON,ioos:station:SCCF:11:1,2017-05-11T07:00:00Z,26.4679,-82.0631,1.97,35.46,1111122 
SCCF RECON,ioos:station:SCCF:11:1,2017-05-11T08:00:00Z,26.4679,-82.0631,1.98,35.49,1111122 
SCCF RECON,ioos:station:SCCF:11:1,2017-05-11T09:00:00Z,26.4679,-82.0631,1.923,35.5,1111122 
SCCF RECON,ioos:station:SCCF:11:1,2017-05-11T10:00:00Z,26.4679,-82.0631,1.85,35.56,1111122 
SCCF RECON,ioos:station:SCCF:11:1,2017-05-11T11:00:00Z,26.4679,-82.0631,1.781,35.57,1111122 
SCCF RECON,ioos:station:SCCF:11:1,2017-05-11T12:00:00Z,26.4679,-82.0631,1.73,35.58,1111122 
SCCF RECON,ioos:station:SCCF:11:1,2017-05-11T13:00:00Z,26.4679,-82.0631,1.71,35.59,1111122 
SCCF RECON,ioos:station:SCCF:11:1,2017-05-11T14:00:00Z,26.4679,-82.0631,1.742,35.57,1111122 
SCCF RECON,ioos:station:SCCF:11:1,2017-05-11T15:00:00Z,26.4679,-82.0631,1.84,35.46,1111122 
SCCF RECON,ioos:station:SCCF:11:1,2017-05-11T16:00:00Z,26.4679,-82.0631,1.944,35.23,1111122 
SCCF RECON,ioos:station:SCCF:11:1,2017-05-11T17:00:00Z,26.4679,-82.0631,2.05,35.06,1111122 
SCCF RECON,ioos:station:SCCF:11:1,2017-05-11T18:00:00Z,26.4679,-82.0631,2.119,35.21,1111122 